Location: Beaurecueil
(43.5122°N, 5.5450°E)
Time: 00:04:36
(UTC+00:00)

Resurs 01 Rocket - Pass Details

Date: 18 September 2020
Orbit: 633 x 645 km, 98.0° (Epoch: 26 October)

Event Time Altitude Azimuth Distance (km) Brightness Sun altitude
Exits shadow 20:56:50 27° 298° (WNW) 1,230 3.6 -33.3°
Drops below altitude 10° 20:59:32 10° 328° (NNW) 2,051 5.0 -33.6°
Sets 21:01:56 0° 338° (NNW) 2,964 5.9 -34.0°
